XNO1802 LFBO-EGGD

Flight info

Callsign XNO1802
Flight time 1h 25m
Altitude 28000
Route LACOU DCT CHALA DCT CNA DCT MANAK DCT MUREL DCT NOZHU DCT SHIRI DCT TOJAQ
Aircraft A320/M-SDE3FGHIRWY/LB1

Departure

Time 2026-05-07 19:48
Airport Toulouse-Blagnac Airport (LFBO)

Arrival

Time 2026-05-07 21:13
Airport Bristol Airport (EGGD)
Time Latitude Longitude Altitude Speed Heading
2026-05-07 19:18 43.62978 1.37315 494 ft 0 kts 44°
2026-05-07 19:27 43.62977 1.37315 494 ft 0 kts 44°
2026-05-07 19:39 43.62973 1.37309 487 ft 4 kts 44°
2026-05-07 19:39 43.62953 1.37283 489 ft 4 kts 43°
2026-05-07 19:39 43.62937 1.37263 483 ft 4 kts 52°
2026-05-07 19:39 43.62929 1.37232 486 ft 4 kts 111°
2026-05-07 19:40 43.62944 1.37206 491 ft 4 kts 142°
2026-05-07 19:40 43.62959 1.37190 483 ft 0 kts 142°
2026-05-07 19:43 43.62931 1.37205 486 ft 6 kts 176°
2026-05-07 19:44 43.62884 1.37159 489 ft 8 kts 232°
2026-05-07 19:44 43.62851 1.37100 483 ft 9 kts 233°
2026-05-07 19:44 43.62778 1.37071 490 ft 12 kts 152°
2026-05-07 19:44 43.62701 1.37149 490 ft 19 kts 143°
2026-05-07 19:45 43.62565 1.37291 489 ft 25 kts 143°
2026-05-07 19:45 43.62422 1.37441 494 ft 26 kts 143°
2026-05-07 19:45 43.62277 1.37592 490 ft 27 kts 142°
2026-05-07 19:45 43.62127 1.37747 491 ft 27 kts 144°
2026-05-07 19:46 43.61982 1.37896 492 ft 24 kts 142°
2026-05-07 19:46 43.61852 1.38032 489 ft 22 kts 143°
2026-05-07 19:46 43.61767 1.38120 489 ft 10 kts 143°
2026-05-07 19:46 43.61722 1.38164 491 ft 7 kts 151°
2026-05-07 19:47 43.61664 1.38166 484 ft 14 kts 204°
2026-05-07 19:47 43.61602 1.38066 485 ft 11 kts 233°
2026-05-07 19:47 43.61604 1.37982 487 ft 9 kts 317°
2026-05-07 19:47 43.61620 1.37964 488 ft 0 kts 322°
2026-05-07 19:48 43.61758 1.37823 486 ft 63 kts 322°
2026-05-07 19:48 43.62289 1.37271 487 ft 125 kts 323°
2026-05-07 19:48 43.63123 1.36405 540 ft 169 kts 323°
2026-05-07 19:48 43.64043 1.35428 1217 ft 166 kts 323°
2026-05-07 19:49 43.64952 1.34449 1924 ft 165 kts 322°
2026-05-07 19:49 43.65866 1.33436 2438 ft 175 kts 322°
2026-05-07 19:49 43.66864 1.32348 2807 ft 191 kts 322°
2026-05-07 19:49 43.67929 1.31167 3155 ft 208 kts 321°
2026-05-07 19:50 43.69134 1.29841 3406 ft 235 kts 322°
2026-05-07 19:50 43.70487 1.28374 3785 ft 259 kts 322°
2026-05-07 19:50 43.71991 1.26903 4510 ft 266 kts 334°
2026-05-07 19:50 43.73775 1.26137 5308 ft 271 kts 347°
2026-05-07 19:51 43.75615 1.25518 6217 ft 273 kts 346°
2026-05-07 19:51 43.77460 1.24838 7051 ft 276 kts 338°
2026-05-07 19:51 43.79218 1.23743 7869 ft 279 kts 334°
2026-05-07 19:51 43.80985 1.22588 8673 ft 283 kts 334°
2026-05-07 19:52 43.82750 1.21426 9479 ft 287 kts 333°
2026-05-07 19:52 43.84564 1.20235 10244 ft 291 kts 333°
2026-05-07 19:52 43.86455 1.18991 10551 ft 313 kts 333°
2026-05-07 19:52 43.88494 1.17649 10782 ft 334 kts 333°
2026-05-07 19:53 43.90627 1.16247 11336 ft 343 kts 333°
2026-05-07 19:53 43.92801 1.14823 12038 ft 347 kts 333°
2026-05-07 19:53 43.94992 1.13385 12753 ft 350 kts 333°
2026-05-07 19:53 43.97210 1.11928 13475 ft 354 kts 333°
2026-05-07 19:54 43.99415 1.10479 13848 ft 357 kts 333°
2026-05-07 19:54 44.01656 1.09003 13938 ft 357 kts 333°
2026-05-07 19:54 44.03904 1.07522 13968 ft 357 kts 333°
2026-05-07 19:54 44.06170 1.06031 14269 ft 361 kts 333°
2026-05-07 19:55 44.08434 1.04536 14927 ft 363 kts 333°
2026-05-07 19:55 44.10725 1.03022 15548 ft 366 kts 333°
2026-05-07 19:55 44.13040 1.01490 16155 ft 370 kts 333°
2026-05-07 19:55 44.15345 0.99962 16744 ft 374 kts 333°
2026-05-07 19:56 44.17734 0.98377 17344 ft 377 kts 333°
2026-05-07 19:56 44.20080 0.96821 17930 ft 380 kts 333°
2026-05-07 19:56 44.22481 0.95227 18476 ft 384 kts 333°
2026-05-07 19:56 44.24898 0.93624 18974 ft 387 kts 332°
2026-05-07 19:57 44.27340 0.92002 19471 ft 390 kts 332°
2026-05-07 19:57 44.29797 0.90367 19968 ft 393 kts 332°
2026-05-07 19:57 44.32253 0.88679 20461 ft 395 kts 330°
2026-05-07 19:57 44.34710 0.86925 20939 ft 398 kts 330°
2026-05-07 19:58 44.37174 0.85133 21423 ft 401 kts 330°
2026-05-07 19:58 44.39619 0.83348 21884 ft 404 kts 330°
2026-05-07 19:58 44.42118 0.81527 22339 ft 407 kts 329°
2026-05-07 19:58 44.44639 0.79696 22802 ft 409 kts 330°
2026-05-07 19:59 44.47177 0.77859 23257 ft 412 kts 330°
2026-05-07 19:59 44.49735 0.76013 23684 ft 415 kts 330°
2026-05-07 19:59 44.52309 0.74163 24055 ft 417 kts 330°
2026-05-07 19:59 44.54901 0.72298 24427 ft 420 kts 330°
2026-05-07 20:00 44.57505 0.70422 24804 ft 422 kts 330°
2026-05-07 20:00 44.60122 0.68533 25160 ft 424 kts 329°
2026-05-07 20:00 44.62749 0.66628 25510 ft 426 kts 329°
2026-05-07 20:00 44.65387 0.64710 25863 ft 428 kts 329°
2026-05-07 20:01 44.68004 0.62808 26203 ft 430 kts 329°
2026-05-07 20:01 44.70669 0.60872 26545 ft 433 kts 329°
2026-05-07 20:01 44.73350 0.58923 26889 ft 435 kts 329°
2026-05-07 20:01 44.76043 0.56962 27221 ft 437 kts 329°
2026-05-07 20:02 44.78753 0.54984 27552 ft 439 kts 329°
2026-05-07 20:02 44.81473 0.52999 27866 ft 442 kts 329°
2026-05-07 20:02 44.84210 0.51000 27941 ft 439 kts 329°
2026-05-07 20:02 44.86889 0.49043 27947 ft 431 kts 330°
2026-05-07 20:03 44.89536 0.47103 27955 ft 428 kts 329°
2026-05-07 20:03 44.92140 0.45193 27949 ft 427 kts 329°
2026-05-07 20:03 44.94774 0.43257 27950 ft 427 kts 329°
2026-05-07 20:03 44.97407 0.41324 27953 ft 427 kts 329°
2026-05-07 20:04 45.00042 0.39387 27955 ft 427 kts 329°
2026-05-07 20:04 45.02672 0.37452 27961 ft 426 kts 329°
2026-05-07 20:04 45.05301 0.35516 27964 ft 426 kts 329°
2026-05-07 20:04 45.07931 0.33577 27972 ft 426 kts 329°
2026-05-07 20:05 45.10526 0.31659 27973 ft 426 kts 329°
2026-05-07 20:05 45.13154 0.29718 27973 ft 426 kts 329°
2026-05-07 20:05 45.15780 0.27777 27973 ft 426 kts 329°
2026-05-07 20:05 45.18405 0.25833 27981 ft 426 kts 329°
2026-05-07 20:06 45.21027 0.23893 27976 ft 425 kts 329°
2026-05-07 20:06 45.23651 0.21946 27974 ft 425 kts 329°
2026-05-07 20:06 45.26272 0.19998 27975 ft 425 kts 329°
2026-05-07 20:06 45.28888 0.18048 27976 ft 425 kts 329°
2026-05-07 20:07 45.31505 0.16094 27973 ft 425 kts 329°
2026-05-07 20:07 45.34063 0.14116 27974 ft 423 kts 324°
2026-05-07 20:07 45.36424 0.11672 27968 ft 419 kts 315°
2026-05-07 20:07 45.38506 0.08800 27963 ft 416 kts 311°
2026-05-07 20:08 45.40535 0.05856 27964 ft 416 kts 311°
2026-05-07 20:08 45.42565 0.02917 27966 ft 416 kts 311°
2026-05-07 20:08 45.44598 -0.00025 27964 ft 417 kts 311°
2026-05-07 20:08 45.46631 -0.02966 27966 ft 417 kts 311°
2026-05-07 20:09 45.48662 -0.05910 27965 ft 417 kts 311°
2026-05-07 20:09 45.50689 -0.08854 27967 ft 417 kts 311°
2026-05-07 20:09 45.52691 -0.11769 27967 ft 417 kts 311°
2026-05-07 20:10 45.56748 -0.17680 27968 ft 417 kts 310°
2026-05-07 20:10 45.58776 -0.20639 27970 ft 417 kts 310°
2026-05-07 20:10 45.60800 -0.23600 27968 ft 417 kts 310°
2026-05-07 20:10 45.62825 -0.26563 27969 ft 417 kts 310°
2026-05-07 20:11 45.64846 -0.29525 27968 ft 417 kts 310°
2026-05-07 20:11 45.66994 -0.32327 27965 ft 420 kts 318°
2026-05-07 20:11 45.69262 -0.34869 27964 ft 420 kts 318°
2026-05-07 20:11 45.71560 -0.37452 27964 ft 420 kts 318°
2026-05-07 20:12 45.73856 -0.40039 27966 ft 420 kts 318°
2026-05-07 20:12 45.76151 -0.42627 27965 ft 420 kts 317°
2026-05-07 20:12 45.78445 -0.45217 27965 ft 420 kts 317°
2026-05-07 20:12 45.80741 -0.47810 27962 ft 420 kts 317°
2026-05-07 20:13 45.83036 -0.50403 27967 ft 420 kts 317°
2026-05-07 20:13 45.85329 -0.53001 27968 ft 420 kts 317°
2026-05-07 20:13 45.87623 -0.55607 27968 ft 420 kts 317°
2026-05-07 20:13 45.89881 -0.58180 27969 ft 420 kts 317°
2026-05-07 20:14 45.92170 -0.60789 27966 ft 420 kts 317°
2026-05-07 20:14 45.94463 -0.63402 27967 ft 421 kts 317°
2026-05-07 20:14 45.96757 -0.66013 27968 ft 421 kts 317°
2026-05-07 20:14 45.99054 -0.68628 27971 ft 421 kts 317°
2026-05-07 20:15 46.01348 -0.71242 27973 ft 421 kts 317°
2026-05-07 20:15 46.03645 -0.73865 27974 ft 421 kts 317°
2026-05-07 20:15 46.05940 -0.76491 27978 ft 421 kts 317°
2026-05-07 20:15 46.08235 -0.79123 27973 ft 422 kts 317°
2026-05-07 20:16 46.10495 -0.81718 27972 ft 422 kts 317°
2026-05-07 20:16 46.12790 -0.84354 27974 ft 422 kts 317°
2026-05-07 20:16 46.15083 -0.86992 27972 ft 422 kts 317°
2026-05-07 20:16 46.17374 -0.89628 27969 ft 422 kts 317°
2026-05-07 20:17 46.19668 -0.92268 27966 ft 422 kts 317°
2026-05-07 20:17 46.22061 -0.94736 27967 ft 425 kts 326°
2026-05-07 20:17 46.24658 -0.96797 27968 ft 426 kts 328°
2026-05-07 20:17 46.27270 -0.98836 27966 ft 426 kts 328°
2026-05-07 20:18 46.29841 -1.00857 27965 ft 426 kts 328°
2026-05-07 20:18 46.32445 -1.02914 27968 ft 426 kts 328°
2026-05-07 20:18 46.35048 -1.04971 27969 ft 426 kts 328°
2026-05-07 20:18 46.37650 -1.07027 27968 ft 426 kts 328°
2026-05-07 20:19 46.40254 -1.09082 27968 ft 426 kts 328°
2026-05-07 20:19 46.42860 -1.11140 27969 ft 426 kts 328°
2026-05-07 20:19 46.45459 -1.13194 27971 ft 426 kts 328°
2026-05-07 20:19 46.48028 -1.15227 27977 ft 426 kts 328°
2026-05-07 20:20 46.50630 -1.17288 27982 ft 426 kts 328°
2026-05-07 20:20 46.53231 -1.19352 27983 ft 426 kts 328°
2026-05-07 20:20 46.55830 -1.21415 27985 ft 426 kts 328°
2026-05-07 20:20 46.58433 -1.23484 27991 ft 426 kts 328°
2026-05-07 20:21 46.61032 -1.25554 27991 ft 426 kts 328°
2026-05-07 20:21 46.63627 -1.27625 27996 ft 426 kts 328°
2026-05-07 20:21 46.66229 -1.29705 27996 ft 426 kts 328°
2026-05-07 20:21 46.68792 -1.31754 27997 ft 426 kts 328°
2026-05-07 20:22 46.71387 -1.33834 27997 ft 426 kts 328°
2026-05-07 20:22 46.73982 -1.35914 27995 ft 426 kts 328°
2026-05-07 20:22 46.76579 -1.37992 27998 ft 426 kts 328°
2026-05-07 20:22 46.79174 -1.40074 27996 ft 426 kts 328°
2026-05-07 20:23 46.81769 -1.42161 27994 ft 426 kts 328°
2026-05-07 20:23 46.84361 -1.44251 27993 ft 425 kts 328°
2026-05-07 20:23 46.86952 -1.46337 27991 ft 425 kts 328°
2026-05-07 20:23 46.89546 -1.48423 27988 ft 425 kts 328°
2026-05-07 20:24 46.92136 -1.50510 27983 ft 425 kts 328°
2026-05-07 20:24 46.94686 -1.52570 27964 ft 425 kts 328°
2026-05-07 20:24 46.97274 -1.54665 27981 ft 425 kts 328°
2026-05-07 20:24 46.99858 -1.56761 27974 ft 425 kts 328°
2026-05-07 20:25 47.02443 -1.58857 27978 ft 425 kts 328°
2026-05-07 20:25 47.05028 -1.60955 27987 ft 425 kts 328°
2026-05-07 20:25 47.07614 -1.63058 27983 ft 425 kts 328°
2026-05-07 20:25 47.10197 -1.65156 27983 ft 425 kts 328°
2026-05-07 20:26 47.12785 -1.67256 27997 ft 425 kts 328°
2026-05-07 20:26 47.15334 -1.69330 27992 ft 425 kts 328°
2026-05-07 20:26 47.17915 -1.71439 27991 ft 425 kts 328°
2026-05-07 20:26 47.20497 -1.73549 27985 ft 425 kts 328°
2026-05-07 20:27 47.23084 -1.75659 27993 ft 425 kts 328°
2026-05-07 20:27 47.25667 -1.77769 27999 ft 425 kts 328°
2026-05-07 20:27 47.28250 -1.79887 27986 ft 425 kts 328°
2026-05-07 20:27 47.30831 -1.82009 27990 ft 425 kts 328°
2026-05-07 20:28 47.33412 -1.84134 27994 ft 425 kts 328°
2026-05-07 20:28 47.35991 -1.86259 27988 ft 425 kts 328°
2026-05-07 20:28 47.38532 -1.88360 27990 ft 425 kts 328°
2026-05-07 20:28 47.41112 -1.90494 27987 ft 425 kts 328°
2026-05-07 20:29 47.43692 -1.92624 27989 ft 425 kts 328°
2026-05-07 20:29 47.48857 -1.96882 27998 ft 425 kts 328°
2026-05-07 20:29 47.51436 -1.99018 27988 ft 425 kts 328°
2026-05-07 20:30 47.54016 -2.01160 27993 ft 425 kts 328°
2026-05-07 20:30 47.56594 -2.03301 27993 ft 425 kts 328°
2026-05-07 20:30 47.59136 -2.05414 27985 ft 425 kts 328°
2026-05-07 20:31 47.64290 -2.09702 28001 ft 425 kts 328°
2026-05-07 20:31 47.66866 -2.11848 27994 ft 425 kts 328°
2026-05-07 20:31 47.69444 -2.14000 27998 ft 425 kts 328°
2026-05-07 20:32 47.74599 -2.18304 28010 ft 425 kts 328°
2026-05-07 20:32 47.79753 -2.22622 28003 ft 425 kts 328°
2026-05-07 20:33 47.84868 -2.26917 27999 ft 425 kts 328°
2026-05-07 20:33 47.90017 -2.31254 28003 ft 425 kts 328°
2026-05-07 20:34 47.95166 -2.35602 28001 ft 425 kts 328°
2026-05-07 20:34 48.00308 -2.39957 28001 ft 425 kts 328°
2026-05-07 20:34 48.02849 -2.42107 27996 ft 425 kts 328°
2026-05-07 20:35 48.05422 -2.44285 27999 ft 425 kts 328°
2026-05-07 20:35 48.07998 -2.46468 28000 ft 425 kts 328°
2026-05-07 20:35 48.10571 -2.48652 28000 ft 425 kts 328°
2026-05-07 20:36 48.15715 -2.53046 28001 ft 426 kts 328°
2026-05-07 20:36 48.20862 -2.57445 27997 ft 426 kts 328°
2026-05-07 20:37 48.25973 -2.61821 28010 ft 426 kts 328°
2026-05-07 20:37 48.31122 -2.66234 28019 ft 426 kts 328°
2026-05-07 20:38 48.36269 -2.70663 28019 ft 426 kts 328°
2026-05-07 20:38 48.41414 -2.75099 28019 ft 426 kts 328°
2026-05-07 20:39 48.46522 -2.79510 28022 ft 426 kts 328°
2026-05-07 20:39 48.51662 -2.83952 28019 ft 426 kts 328°
2026-05-07 20:40 48.56803 -2.88408 28013 ft 426 kts 327°
2026-05-07 20:40 48.61936 -2.92883 28019 ft 426 kts 327°
2026-05-07 20:41 48.67069 -2.97370 28011 ft 426 kts 327°
2026-05-07 20:41 48.72165 -3.01823 28006 ft 426 kts 327°
2026-05-07 20:42 48.77303 -3.06307 28003 ft 426 kts 327°
2026-05-07 20:42 48.82441 -3.10812 28008 ft 427 kts 327°
2026-05-07 20:43 48.87576 -3.15339 28010 ft 427 kts 327°
2026-05-07 20:43 48.92712 -3.19884 28014 ft 427 kts 327°
2026-05-07 20:44 48.97814 -3.24409 28011 ft 427 kts 327°
2026-05-07 20:44 49.02946 -3.28965 28001 ft 427 kts 327°
2026-05-07 20:45 49.08088 -3.33525 28004 ft 428 kts 327°
2026-05-07 20:45 49.10659 -3.35815 28000 ft 428 kts 327°
2026-05-07 20:45 49.13226 -3.38110 28005 ft 428 kts 327°
2026-05-07 20:46 49.18331 -3.42668 28002 ft 428 kts 327°
2026-05-07 20:46 49.23472 -3.47264 28009 ft 428 kts 327°
2026-05-07 20:47 49.28607 -3.51870 28006 ft 428 kts 327°
2026-05-07 20:47 49.33902 -3.56066 28003 ft 431 kts 337°
2026-05-07 20:48 49.39495 -3.59246 28004 ft 432 kts 337°
2026-05-07 20:48 49.42311 -3.60853 27995 ft 432 kts 337°
2026-05-07 20:48 49.45128 -3.62461 28002 ft 432 kts 337°
2026-05-07 20:49 49.50756 -3.65685 28000 ft 432 kts 337°
2026-05-07 20:49 49.56389 -3.68915 28013 ft 432 kts 337°
2026-05-07 20:50 49.61977 -3.72136 28007 ft 432 kts 337°
2026-05-07 20:50 49.67643 -3.75190 28010 ft 433 kts 345°
2026-05-07 20:51 49.73648 -3.75962 28001 ft 436 kts
2026-05-07 20:51 49.79698 -3.75250 28004 ft 436 kts
2026-05-07 20:52 49.85748 -3.74542 28007 ft 436 kts
2026-05-07 20:52 49.88731 -3.74186 28000 ft 436 kts
2026-05-07 20:52 49.91756 -3.73824 28009 ft 436 kts
2026-05-07 20:53 49.97804 -3.73108 28011 ft 436 kts
2026-05-07 20:53 50.03849 -3.72399 28012 ft 436 kts
2026-05-07 20:53 50.06870 -3.72043 27956 ft 433 kts
2026-05-07 20:54 50.09875 -3.71683 27391 ft 433 kts
2026-05-07 20:54 50.12841 -3.71323 26668 ft 434 kts
2026-05-07 20:54 50.15851 -3.70958 25949 ft 434 kts
2026-05-07 20:54 50.18857 -3.70594 25251 ft 433 kts
2026-05-07 20:55 50.21861 -3.70232 24570 ft 433 kts
2026-05-07 20:55 50.24857 -3.69873 23903 ft 432 kts
2026-05-07 20:55 50.27850 -3.69518 23177 ft 431 kts
2026-05-07 20:55 50.30833 -3.69161 22412 ft 430 kts
2026-05-07 20:56 50.33814 -3.68804 21645 ft 429 kts
2026-05-07 20:56 50.36789 -3.68428 20930 ft 429 kts
2026-05-07 20:56 50.39668 -3.67492 20223 ft 429 kts 17°
2026-05-07 20:56 50.42414 -3.65689 19527 ft 428 kts 28°
2026-05-07 20:57 50.44894 -3.63115 18847 ft 427 kts 39°
2026-05-07 20:57 50.47161 -3.60115 18159 ft 426 kts 40°
2026-05-07 20:57 50.49418 -3.57105 17398 ft 425 kts 40°
2026-05-07 20:57 50.51665 -3.54102 16663 ft 424 kts 40°
2026-05-07 20:58 50.53906 -3.51106 15940 ft 422 kts 40°
2026-05-07 20:58 50.56287 -3.48434 15226 ft 421 kts 29°
2026-05-07 20:58 50.58916 -3.46602 14560 ft 418 kts 17°
2026-05-07 20:58 50.61748 -3.45639 13887 ft 415 kts
2026-05-07 20:59 50.64613 -3.45163 13133 ft 413 kts
2026-05-07 20:59 50.67462 -3.44687 12393 ft 410 kts
2026-05-07 20:59 50.70290 -3.44207 11670 ft 407 kts
2026-05-07 20:59 50.73092 -3.43726 11089 ft 401 kts
2026-05-07 21:00 50.75836 -3.43250 10639 ft 392 kts
2026-05-07 21:00 50.78514 -3.42789 10200 ft 383 kts
2026-05-07 21:00 50.81139 -3.42337 9740 ft 376 kts
2026-05-07 21:00 50.83671 -3.41903 9257 ft 363 kts
2026-05-07 21:01 50.86110 -3.41484 8777 ft 342 kts
2026-05-07 21:01 50.88418 -3.41085 8308 ft 325 kts
2026-05-07 21:01 50.90617 -3.40704 7847 ft 311 kts
2026-05-07 21:01 50.92723 -3.40339 7389 ft 299 kts
2026-05-07 21:02 50.94741 -3.39990 7107 ft 286 kts
2026-05-07 21:02 50.96713 -3.39648 6962 ft 284 kts
2026-05-07 21:02 50.98676 -3.39307 6860 ft 284 kts
2026-05-07 21:02 51.00614 -3.38972 6766 ft 284 kts
2026-05-07 21:03 51.02572 -3.38630 6675 ft 283 kts
2026-05-07 21:03 51.04528 -3.38286 6580 ft 282 kts
2026-05-07 21:03 51.06477 -3.37943 6477 ft 282 kts
2026-05-07 21:03 51.08405 -3.37609 6303 ft 274 kts
2026-05-07 21:04 51.10260 -3.37291 6180 ft 262 kts
2026-05-07 21:04 51.12037 -3.36982 6024 ft 252 kts
2026-05-07 21:04 51.13768 -3.36679 5857 ft 248 kts
2026-05-07 21:04 51.15468 -3.36275 5709 ft 247 kts 15°
2026-05-07 21:05 51.17071 -3.35352 5552 ft 244 kts 28°
2026-05-07 21:05 51.18503 -3.33921 5399 ft 242 kts 41°
2026-05-07 21:05 51.19691 -3.32090 5251 ft 240 kts 53°
2026-05-07 21:05 51.20699 -3.29978 5072 ft 239 kts 55°
2026-05-07 21:06 51.21697 -3.27863 4894 ft 239 kts 55°
2026-05-07 21:06 51.22698 -3.25753 4737 ft 238 kts 55°
2026-05-07 21:06 51.23698 -3.23647 4581 ft 238 kts 55°
2026-05-07 21:06 51.24695 -3.21544 4424 ft 238 kts 55°
2026-05-07 21:07 51.25689 -3.19442 4265 ft 237 kts 55°
2026-05-07 21:07 51.26679 -3.17343 4103 ft 237 kts 55°
2026-05-07 21:07 51.27652 -3.15273 3949 ft 236 kts 55°
2026-05-07 21:07 51.28636 -3.13181 3802 ft 235 kts 55°
2026-05-07 21:08 51.29620 -3.11095 3647 ft 235 kts 55°
2026-05-07 21:08 51.30600 -3.09016 3491 ft 234 kts 55°
2026-05-07 21:08 51.31578 -3.06937 3337 ft 233 kts 55°
2026-05-07 21:08 51.32550 -3.04866 3180 ft 232 kts 55°
2026-05-07 21:09 51.33520 -3.02805 3019 ft 232 kts 55°
2026-05-07 21:09 51.34476 -3.00768 2870 ft 232 kts 55°
2026-05-07 21:09 51.35431 -2.98731 2720 ft 226 kts 55°
2026-05-07 21:09 51.36358 -2.96748 2593 ft 219 kts 55°
2026-05-07 21:10 51.37149 -2.94748 2494 ft 207 kts 71°
2026-05-07 21:10 51.37440 -2.92613 2501 ft 191 kts 89°
2026-05-07 21:10 51.37522 -2.90583 2521 ft 174 kts 89°
2026-05-07 21:10 51.37599 -2.88696 2480 ft 168 kts 89°
2026-05-07 21:11 51.37673 -2.86861 2329 ft 160 kts 89°
2026-05-07 21:11 51.37742 -2.85162 2137 ft 151 kts 89°
2026-05-07 21:11 51.37870 -2.81956 1766 ft 140 kts 90°
2026-05-07 21:12 51.37932 -2.80403 1562 ft 139 kts 89°
2026-05-07 21:12 51.37993 -2.78857 1361 ft 139 kts 89°
2026-05-07 21:12 51.38054 -2.77317 1172 ft 139 kts 88°
2026-05-07 21:12 51.38115 -2.75777 979 ft 139 kts 88°
2026-05-07 21:13 51.38177 -2.74230 728 ft 138 kts 87°
2026-05-07 21:13 51.38236 -2.72734 646 ft 136 kts 86°
2026-05-07 21:13 51.38285 -2.71482 622 ft 73 kts 86°
2026-05-07 21:13 51.38306 -2.70982 619 ft 31 kts 86°
2026-05-07 21:14 51.38321 -2.70784 612 ft 14 kts 53°
2026-05-07 21:14 51.38399 -2.70727 626 ft 9 kts 20°
2026-05-07 21:14 51.38443 -2.70708 622 ft 6 kts 359°
2026-05-07 21:14 51.38468 -2.70755 625 ft 5 kts 281°
2026-05-07 21:15 51.38467 -2.70856 623 ft 10 kts 266°
2026-05-07 21:15 51.38464 -2.70952 614 ft 8 kts 266°
2026-05-07 21:15 51.38461 -2.71033 615 ft 7 kts 266°
2026-05-07 21:15 51.38458 -2.71102 615 ft 6 kts 266°
2026-05-07 21:16 51.38480 -2.71133 629 ft 4 kts 353°
2026-05-07 21:16 51.38507 -2.71136 620 ft 4 kts 357°
2026-05-07 21:16 51.38529 -2.71139 614 ft 3 kts 356°
2026-05-07 21:16 51.38543 -2.71140 614 ft 2 kts 356°
2026-05-07 21:17 51.38550 -2.71141 614 ft 1 kts 356°
2026-05-07 21:17 51.38555 -2.71141 614 ft 0 kts 356°